Theta_e
312 312 312 312 312 312 311 311 310 309 308 306 302 301 292 290 289 299 301 305 300 293 287 291 291 287 290 295 293 293 292 291 293 291 293 290 292 290 289 289 287 288 287 287 286 287 284 287 284 289 289 288 291 294 294 295 293 294 290 292 292 302 288 286 286 288 291 294 296 297 299 297 295 297 298 295 293 294 295 295 291 292 290 292 293 290 295
312 312 313 313 313 312 311 311 311 310 309 306 305 297 293 293 292 294 302 304 300 292 283 284 287 290 292 292 292 294 293 292 291 291 293 291 290 290 290 290 293 289 290 288 286 289 280 289 288 285 290 288 295 294 294 295 293 292 291 289 295 288 289 285 281 281 287 292 293 295 296 296 292 291 293 295 296 295 294 296 293 293 291 294 290 288 294
312 312 313 312 313 312 311 312 311 311 311 310 305 297 296 294 296 293 298 302 299 289 289 288 287 288 288 289 289 290 292 295 294 293 292 294 293 291 290 291 292 290 291 288 289 290 286 284 290 289 290 289 296 296 295 296 293 295 299 301 300 292 290 284 277 277 279 281 283 282 283 287 290 292 292 294 293 292 292 292 292 289 292 293 292 293 299
312 312 313 313 312 312 312 311 311 311 311 310 305 299 296 289 284 292 293 295 294 293 295 291 288 287 288 287 289 290 288 293 295 295 293 295 295 295 293 292 292 290 289 287 287 286 290 286 285 288 287 289 294 294 295 295 294 298 302 301 297 292 292 287 284 282 282 284 284 289 291 289 287 289 291 291 293 294 294 292 289 290 289 292 293 296 298
312 313 313 312 312 312 312 311 311 311 311 311 304 299 292 290 285 288 287 291 290 288 289 289 289 286 290 284 289 287 288 290 292 296 289 295 293 292 292 290 288 288 287 286 285 287 286 289 287 286 285 289 292 296 294 295 297 300 298 299 295 291 287 288 288 287 287 289 289 290 291 288 289 289 289 292 292 293 291 290 290 294 290 291 295 296 296
312 313 313 312 312 312 311 311 311 311 310 310 306 293 292 285 290 294 294 287 285 286 285 290 288 290 290 287 291 288 287 288 287 292 295 295 296 289 291 292 290 289 287 286 283 285 285 285 283 287 288 288 291 290 294 292 297 298 294 297 292 289 285 288 288 287 289 290 290 291 291 290 290 290 290 289 292 292 291 292 294 295 293 292 297 295 295
312 313 313 313 312 312 312 312 311 311 308 308 304 294 295 293 294 293 297 290 291 288 290 291 290 288 290 290 290 287 287 286 289 289 290 292 291 292 285 287 289 289 289 287 283 284 281 281 285 285 285 286 287 286 290 294 297 295 293 293 294 291 285 288 289 287 288 289 289 291 290 290 290 290 291 291 292 292 294 293 294 295 294 296 297 297 297
312 313 313 312 312 312 312 312 312 311 308 308 303 300 294 292 292 292 297 295 292 292 289 289 288 285 291 286 287 290 288 287 289 291 290 287 289 294 288 288 290 290 289 287 284 286 286 286 283 286 286 285 287 286 287 288 294 294 291 292 293 290 286 293 289 286 286 288 290 291 290 290 288 291 292 293 296 299 301 301 300 299 296 297 296 296 298
312 312 313 313 312 312 312 312 311 310 309 303 302 299 301 302 303 300 293 290 292 292 289 288 287 286 287 286 290 290 290 288 290 289 294 290 288 290 288 290 290 290 289 287 287 290 289 289 288 289 288 284 289 285 287 293 288 291 290 291 291 292 287 291 287 282 283 288 289 289 290 290 289 290 293 297 299 301 302 299 303 296 295 295 295 294 296
312 312 313 313 312 312 312 312 312 310 309 304 303 297 306 304 306 304 298 289 294 287 290 291 290 286 290 291 291 290 289 290 291 287 293 294 294 293 292 291 289 287 287 286 288 291 291 291 292 292 292 292 291 292 292 293 290 289 289 293 289 290 288 286 286 282 281 287 290 288 288 292 291 292 297 299 302 304 309 311 312 310 309 301 296 296 304
312 312 312 312 313 313 312 312 313 311 309 304 302 301 304 300 298 298 297 288 291 290 290 289 288 292 292 293 290 292 291 291 292 286 288 292 293 295 293 290 287 285 286 290 294 295 295 295 295 295 293 292 291 291 292 294 293 292 291 290 290 290 288 286 290 280 281 285 287 288 289 284 287 300 302 302 301 301 300 308 309 311 312 308 308 311 315
312 312 312 313 312 313 313 313 313 311 309 309 307 303 305 307 303 300 293 287 289 292 290 288 290 291 291 292 291 290 290 290 290 294 289 291 292 294 292 290 289 284 291 296 297 296 296 296 294 293 292 291 291 291 291 290 291 296 294 290 289 288 289 287 288 282 279 284 287 289 283 286 300 303 303 305 305 304 301 305 311 310 311 311 312 314 317
312 312 312 313 313 313 313 313 313 312 310 310 308 303 308 309 302 298 295 290 287 290 288 290 294 293 293 293 292 292 294 294 293 293 292 290 290 291 292 291 289 291 297 296 296 293 289 287 288 289 289 290 290 290 289 289 289 293 294 294 290 287 287 288 287 285 285 281 281 279 283 297 301 305 303 306 306 304 302 308 311 309 309 309 309 311 319
312 312 312 313 313 313 313 313 312 312 312 310 307 307 308 307 300 298 295 290 290 293 293 292 293 292 293 293 293 293 293 291 291 291 288 292 290 291 293 295 295 298 298 297 293 289 285 284 282 282 283 288 288 286 288 289 290 290 291 293 293 291 290 289 284 288 278 280 280 282 291 297 299 299 299 301 297 299 298 294 308 308 308 307 308 311 319
312 312 313 313 313 313 313 313 313 313 312 310 309 308 308 308 306 301 300 296 289 293 294 288 292 293 293 293 293 290 288 287 287 288 292 293 291 293 294 296 298 297 297 293 288 289 286 285 282 281 282 282 278 282 291 286 290 292 292 294 294 293 287 290 285 283 287 278 278 278 284 286 293 299 302 304 304 305 305 300 304 309 307 308 308 311 318
312 312 313 313 313 314 313 314 313 313 313 310 309 308 308 309 308 306 300 296 293 285 289 294 296 294 292 293 294 290 286 286 285 287 288 287 289 293 296 297 298 298 296 294 289 287 285 283 282 281 279 281 285 283 282 289 287 291 294 294 293 293 293 292 286 284 283 279 276 277 279 285 294 296 300 304 305 306 307 300 301 307 306 308 308 310 310
312 313 313 313 314 314 314 314 313 313 312 311 307 308 306 311 308 304 300 297 295 289 296 300 297 296 294 292 294 288 288 285 287 286 285 286 288 291 293 297 298 297 297 292 290 286 284 283 284 283 284 286 282 282 285 285 285 286 290 292 291 289 289 288 285 284 284 283 278 276 284 283 294 298 301 304 306 308 304 295 297 303 307 308 307 308 309
312 313 313 314 314 314 314 314 314 313 312 312 309 307 307 311 310 308 302 297 293 292 294 298 296 293 292 293 291 294 293 290 290 292 288 288 288 288 291 294 292 297 299 289 289 284 283 283 281 282 281 288 286 285 280 286 284 284 284 285 284 286 287 288 283 284 285 285 282 285 286 299 299 300 304 305 307 306 296 290 297 306 307 308 308 309 311
313 313 313 314 314 314 314 314 314 313 313 311 310 309 307 310 310 309 303 299 296 289 295 300 300 296 298 299 295 295 295 293 291 287 287 286 286 291 293 294 296 287 293 287 289 285 284 284 287 284 282 285 286 282 286 284 284 289 289 284 285 287 288 289 288 284 282 283 281 282 289 298 302 302 306 304 305 293 292 302 309 307 306 308 309 309 311
313 313 313 313 314 314 314 314 314 313 313 312 309 305 307 311 311 309 303 297 297 294 296 297 298 294 298 295 290 291 291 292 290 288 286 283 288 293 288 283 288 292 289 290 286 289 285 282 284 285 284 284 285 288 285 286 289 287 287 291 288 288 286 284 285 290 290 289 286 285 282 295 302 302 303 300 294 294 300 303 307 309 307 307 308 309 310
313 313 313 313 313 314 314 313 313 313 313 313 310 306 305 310 311 311 309 304 299 294 295 300 300 298 299 297 297 297 295 292 289 287 288 289 291 289 279 282 286 290 287 289 284 285 286 284 286 284 287 285 286 287 282 284 286 293 293 290 289 293 286 286 288 293 286 286 285 285 294 298 303 300 292 297 297 301 302 302 300 303 305 305 307 308 309
312 313 313 313 313 314 313 313 313 312 313 313 310 306 302 307 311 311 311 308 301 297 298 298 300 300 302 303 302 302 301 300 300 298 293 291 291 291 290 290 291 291 293 295 290 290 291 289 290 286 284 286 289 284 286 283 282 287 295 295 284 292 289 292 286 294 289 288 292 297 302 303 303 303 301 301 303 305 304 303 302 301 301 305 307 308 309
312 313 313 313 313 313 313 313 312 312 312 313 309 302 299 301 303 311 309 303 305 305 305 302 301 302 304 305 307 307 306 306 304 302 300 294 291 290 290 289 290 295 296 296 289 289 289 290 286 290 286 287 285 284 287 286 284 287 286 294 293 297 297 299 295 291 295 298 301 300 298 299 303 304 304 302 301 303 305 303 300 302 303 304 305 309 310
312 312 313 313 312 312 313 312 312 312 312 312 310 305 302 302 303 306 306 305 300 293 294 292 292 292 294 298 303 308 307 306 306 305 305 301 290 290 294 295 295 296 294 296 298 292 292 292 292 293 285 290 291 285 283 283 285 290 289 288 292 296 297 296 289 292 290 288 298 295 295 297 301 303 305 305 305 303 304 302 302 302 303 304 306 308 311
312 312 312 312 312 312 312 312 311 311 311 312 311 310 309 304 305 306 300 295 295 293 288 291 292 298 301 304 305 304 307 308 309 307 305 303 299 294 292 296 300 295 294 297 298 296 295 290 291 291 286 293 293 285 292 287 286 294 286 288 289 290 299 293 291 290 291 291 294 295 297 301 304 304 302 302 303 303 304 304 304 303 304 304 305 308 311
311 312 312 312 312 312 312 311 310 311 311 311 311 305 304 304 306 302 301 300 300 298 292 289 292 301 304 304 303 305 309 309 307 307 305 304 303 302 299 300 299 302 299 300 297 294 291 291 291 291 288 289 297 289 288 292 291 296 290 288 293 294 297 286 291 289 292 295 296 295 296 301 302 304 305 305 303 302 303 304 303 303 303 303 304 306 310
311 312 312 312 312 312 312 311 311 311 311 311 307 303 302 302 305 305 300 299 291 287 288 288 293 298 303 300 305 309 310 309 307 306 305 305 304 304 302 300 298 299 297 296 297 294 292 291 291 290 292 292 297 293 294 292 292 290 288 293 297 293 288 292 291 287 287 288 291 294 288 289 295 298 300 301 302 303 302 302 302 303 302 303 303 304 311
311 311 312 312 312 312 312 312 312 311 310 311 309 306 306 305 305 306 303 301 296 289 289 290 292 297 303 299 306 308 309 309 307 304 304 304 304 306 303 301 301 298 297 295 292 293 292 290 289 295 296 297 293 291 296 296 296 291 290 292 296 291 292 292 288 287 286 292 295 296 295 295 296 297 300 301 303 303 301 301 301 302 303 304 304 304 307
311 311 311 311 311 311 312 312 312 311 311 310 306 306 307 308 308 308 308 308 307 301 297 297 297 294 292 297 304 306 308 308 307 306 306 305 305 306 305 305 303 303 301 299 295 294 292 293 296 293 292 298 294 290 292 287 287 285 290 295 297 297 298 296 295 294 295 297 297 298 296 294 297 299 300 301 303 302 301 302 302 303 304 305 304 305 306
311 311 311 311 311 311 311 312 312 311 310 306 307 306 301 302 303 306 308 310 305 301 294 292 287 290 299 301 303 305 307 307 306 305 305 305 305 305 305 304 303 304 301 298 297 291 295 294 296 299 301 304 293 293 288 289 287 290 296 297 298 299 299 299 299 296 294 298 299 299 298 299 300 300 301 301 303 303 302 301 302 303 305 306 305 305 308
311 311 311 311 311 311 311 312 312 310 309 302 299 294 290 289 297 307 310 310 304 301 298 297 293 297 294 300 303 301 304 306 302 303 303 304 303 304 305 305 304 305 296 296 296 295 297 293 294 296 301 300 297 292 289 288 286 289 294 297 298 298 299 299 300 300 300 300 300 301 301 301 302 301 301 301 302 303 303 304 305 308 307 307 307 308 309
311 311 311 311 311 310 311 311 312 310 303 302 296 295 296 297 301 304 311 310 306 302 297 292 290 288 288 295 301 306 305 306 306 303 300 303 300 303 302 303 299 303 300 295 295 294 293 295 295 295 294 299 298 292 292 290 287 288 296 297 299 299 300 299 300 300 300 301 300 298 298 299 302 300 299 302 303 304 302 303 304 304 307 308 309 310 310
311 310 310 310 311 311 312 312 312 309 303 304 307 309 308 308 309 310 311 307 304 301 302 295 290 291 289 292 298 301 304 298 297 294 293 300 298 299 295 302 301 299 305 297 291 290 295 295 295 293 297 300 294 292 290 288 290 295 297 299 298 299 299 300 300 300 300 300 300 295 294 296 299 302 305 304 303 303 302 302 303 305 305 305 305 307 308
310 310 310 310 311 311 311 311 311 310 307 302 300 300 305 308 308 308 306 304 300 300 296 292 290 289 290 296 294 298 305 296 294 292 289 299 300 294 294 297 298 295 296 294 294 294 296 297 293 293 297 294 295 291 286 290 295 296 297 298 299 299 299 298 298 298 299 300 300 300 300 301 304 308 306 304 303 303 304 303 303 303 305 305 306 307 307
310 309 310 311 311 312 312 311 303 305 300 299 300 302 304 310 309 311 309 301 293 293 293 293 290 287 290 291 288 293 302 298 295 296 292 294 302 296 297 291 292 290 292 299 292 292 291 293 296 291 288 294 291 286 288 292 294 296 297 297 298 299 298 296 297 298 299 300 300 299 300 301 301 301 303 304 304 304 302 302 302 302 301 302 303 305 306
309 310 310 311 311 311 306 307 303 302 301 302 303 311 313 314 314 304 303 303 298 291 291 291 292 289 290 286 287 294 307 299 296 296 295 296 295 299 297 293 288 291 297 293 289 291 290 297 294 286 292 288 286 288 291 294 294 296 297 297 298 298 297 297 297 298 299 299 299 299 299 299 299 300 301 303 305 304 303 302 302 302 301 301 301 303 305
309 311 312 311 305 306 301 302 308 304 301 300 305 314 313 312 308 307 304 302 303 303 294 289 288 289 292 288 292 294 299 290 292 292 292 293 292 297 294 289 287 294 292 288 291 291 294 300 290 286 287 286 288 294 295 297 296 296 296 297 299 300 299 299 299 299 297 297 298 298 298 297 298 299 299 300 302 305 303 301 302 301 300 300 301 302 303
310 310 302 302 301 300 299 301 303 304 314 313 312 305 301 304 297 297 296 292 297 304 295 292 289 289 294 291 289 296 298 290 291 291 289 295 291 289 296 293 292 294 285 286 289 297 295 292 288 286 287 294 294 296 296 297 297 299 299 299 299 300 300 300 299 297 295 295 295 296 297 297 296 298 298 299 300 302 304 305 303 303 302 303 303 304 304
308 303 300 299 301 298 298 302 308 315 308 307 305 300 296 294 291 290 294 294 296 293 296 293 289 288 292 291 293 299 297 294 291 288 288 293 293 287 292 285 293 291 281 284 289 298 286 286 289 287 286 292 293 295 298 298 298 299 300 299 301 300 301 300 300 298 296 295 296 297 297 295 295 296 298 298 300 302 304 306 307 304 303 303 303 305 304
303 302 300 299 301 303 306 307 313 309 306 299 296 294 293 293 290 289 291 288 287 291 294 288 292 293 296 294 294 293 303 296 291 288 289 293 298 288 292 289 289 290 282 280 287 298 288 284 288 286 285 291 293 297 298 298 297 298 299 300 301 301 300 300 300 300 300 299 300 299 299 299 299 298 298 299 299 299 301 304 307 309 305 304 305 304 304
302 305 306 305 305 300 301 302 301 301 302 300 296 297 292 288 292 292 294 285 283 285 294 293 294 294 299 298 295 292 299 305 299 298 296 293 300 297 288 285 294 285 280 281 290 293 289 287 286 285 286 293 294 297 297 297 297 298 299 300 300 300 299 299 299 300 299 299 299 299 300 300 299 299 299 299 299 299 301 302 304 306 309 308 306 307 307
305 304 304 305 305 303 302 301 300 301 303 301 292 285 286 291 291 288 290 288 286 291 292 297 293 291 293 299 297 296 296 298 298 302 295 290 295 290 287 288 290 283 280 286 294 289 288 285 285 285 291 294 297 297 296 295 297 297 297 299 300 300 299 299 299 299 300 299 298 299 299 300 299 299 300 299 299 299 300 301 302 304 306 310 310 307 307
307 306 303 299 301 299 299 292 296 293 286 284 282 282 285 282 286 288 288 292 297 295 295 299 299 300 304 304 299 302 300 305 300 299 294 289 292 293 289 282 281 277 284 294 289 284 283 284 284 287 293 296 297 296 295 296 296 296 297 298 298 298 299 299 299 299 299 299 298 298 299 299 299 300 300 299 299 299 299 301 302 303 304 307 310 311 310
308 308 306 301 296 299 299 290 297 296 287 282 280 282 283 282 283 286 287 287 290 294 295 294 294 296 293 298 297 298 301 302 303 298 295 295 289 286 281 279 282 288 292 284 283 281 285 288 291 293 296 297 298 296 295 296 295 296 298 299 299 299 298 298 298 298 298 299 299 299 299 299 299 300 300 300 300 298 298 298 300 302 303 303 305 307 309
306 297 289 293 292 293 289 284 288 283 284 284 287 284 285 285 284 282 286 290 293 294 295 296 295 295 297 299 298 298 297 297 302 293 286 289 285 283 284 283 287 286 283 281 283 286 288 287 293 295 295 295 296 296 296 295 295 295 296 299 299 299 298 297 297 297 298 298 298 299 298 298 299 299 299 299 300 300 298 297 299 300 300 300 301 303 306
299 294 289 288 285 287 286 284 282 283 287 289 289 286 285 287 287 289 292 296 294 295 294 294 297 298 297 298 295 293 298 298 293 290 291 289 285 286 291 291 288 283 283 282 279 283 284 288 292 293 295 296 296 296 294 294 295 296 296 297 298 299 299 298 298 297 298 299 299 298 298 298 298 298 298 299 299 300 299 299 299 299 299 299 299 300 301
297 296 286 287 286 286 289 286 284 287 291 290 290 290 290 292 292 293 294 295 294 295 296 296 298 299 295 296 295 293 295 295 291 292 290 285 286 288 293 285 280 284 281 280 283 285 287 291 294 296 297 296 296 295 294 293 295 295 295 297 298 299 300 299 299 298 299 299 299 298 298 298 298 298 299 299 299 299 300 300 299 300 299 298 299 300 300
296 293 289 289 285 285 286 287 289 291 293 295 291 291 292 293 292 292 294 295 295 296 295 296 294 293 293 293 295 291 291 292 288 286 292 289 289 286 281 283 283 286 286 283 283 289 291 293 295 296 297 298 295 294 294 293 294 295 295 296 297 298 299 299 299 299 300 298 298 298 298 298 298 298 298 298 298 299 300 299 299 299 299 299 299 299 299
293 289 292 286 288 288 288 291 292 291 290 291 292 292 293 294 294 294 296 295 295 296 296 294 294 291 288 291 288 289 287 289 284 282 286 282 281 278 282 281 281 277 284 289 286 288 292 296 298 299 297 296 296 296 294 293 294 295 295 295 296 297 298 299 299 299 300 300 299 299 299 300 299 298 298 298 298 299 300 300 300 299 299 299 299 299 298
296 292 291 289 291 290 291 290 290 290 289 289 290 291 292 293 292 295 296 297 296 295 293 296 295 289 288 289 283 283 285 286 287 284 281 281 282 282 281 279 281 282 282 285 289 290 294 296 296 296 296 295 298 296 293 293 296 298 295 297 298 298 298 298 298 299 299 300 301 301 301 300 299 299 298 298 299 300 300 300 300 299 299 299 299 298 298
291 289 290 291 292 290 292 291 290 289 288 289 289 290 291 292 292 293 296 297 293 289 289 289 286 285 283 280 279 281 285 290 287 285 283 283 283 281 277 278 281 284 286 289 292 293 294 295 295 295 295 295 296 295 294 294 295 295 296 299 299 298 298 298 298 299 299 299 300 303 301 300 300 301 301 301 300 299 298 300 300 300 299 300 299 298 297
289 291 295 296 296 294 294 293 292 291 293 292 292 292 293 294 294 295 298 294 291 290 289 288 287 282 279 282 285 287 289 285 282 283 283 284 287 283 281 283 285 289 292 292 293 294 297 296 297 300 296 297 300 296 294 295 295 295 296 297 298 297 297 296 297 297 298 299 299 300 301 302 303 302 302 300 299 298 297 297 299 299 299 299 299 299 298
Wind_Speed
19 19 19 17 17 15 15 16 18 17 19 11 11 4 4 6 2 6 11 15 8 7 6 2 5 2 2 7 2 2 1 2 3 5 7 4 4 2 3 1 1 2 1 0 1 0 1 2 3 1 0 2 1 1 4 4 6 4 2 4 3 6 1 2 6 6 11 15 14 8 2 5 2 2 2 7 4 5 6 5 6 6 1 5 8 11 5
19 19 18 16 15 14 14 14 16 15 14 8 8 4 2 2 3 6 7 15 5 12 5 5 6 4 5 2 2 5 2 5 6 5 6 5 5 6 2 2 1 1 0 0 0 0 1 1 1 2 1 2 1 1 2 4 4 4 2 3 6 4 2 3 3 5 6 8 5 3 4 7 4 5 7 5 7 9 10 1 1 5 9 10 7 14 10
18 18 16 15 14 13 13 13 15 14 11 8 6 4 5 4 2 3 6 10 12 8 2 2 2 6 6 5 6 7 2 4 7 6 3 7 6 7 4 3 4 2 1 1 1 1 4 2 2 2 1 3 1 2 1 3 5 4 7 8 5 4 3 1 3 4 7 9 10 2 7 8 10 6 8 8 8 12 11 2 1 8 6 8 9 11 6
18 18 16 14 13 13 13 13 14 13 11 8 4 3 3 4 4 2 2 5 6 5 3 3 3 3 6 4 3 4 5 6 6 8 2 5 2 4 7 3 1 4 4 1 1 2 1 3 2 1 2 2 1 3 3 2 5 7 9 8 5 2 2 4 4 5 7 2 2 3 5 6 5 14 16 14 9 4 3 3 4 10 3 8 7 6 11
17 17 17 14 13 12 12 13 13 13 10 9 4 1 1 1 2 4 6 3 5 3 2 5 4 3 4 2 3 4 4 4 3 7 3 4 8 4 4 3 3 2 3 2 3 3 2 2 2 5 4 3 2 4 5 3 6 7 5 8 3 1 3 6 5 7 10 7 8 8 8 12 13 12 16 16 13 9 7 5 8 2 3 14 2 7 10
17 18 17 15 13 12 11 12 12 12 9 9 3 2 1 2 1 0 1 1 5 6 4 7 6 6 2 1 1 3 4 4 4 4 1 5 4 3 2 2 5 4 2 3 2 1 2 1 3 2 2 2 2 2 1 2 3 2 3 5 2 2 3 4 5 9 7 9 7 7 9 9 11 14 16 17 17 11 10 10 10 7 7 8 1 6 9
17 17 16 15 13 12 11 11 11 11 8 5 1 2 2 1 1 1 1 1 1 2 5 5 4 8 4 1 3 4 4 3 2 3 5 5 2 2 2 5 8 8 6 1 2 1 3 3 2 1 3 3 3 2 2 3 1 1 2 4 1 2 4 5 7 9 7 8 7 10 11 10 10 11 13 13 12 16 13 15 14 14 11 9 11 10 14
18 17 15 15 14 12 11 11 11 9 7 4 2 1 1 2 2 1 0 1 2 2 1 1 3 4 4 2 2 2 3 4 6 4 2 4 4 1 3 8 10 9 8 2 2 3 3 6 8 2 3 4 1 3 5 2 0 1 0 2 3 2 4 4 1 2 5 8 8 8 8 6 10 11 12 12 12 14 15 13 14 9 8 12 17 13 14
17 16 15 15 14 11 10 10 9 8 4 2 2 1 1 1 1 1 2 2 2 1 1 1 2 3 3 1 3 6 4 5 5 8 5 6 3 3 7 8 10 8 5 5 5 7 5 6 10 9 7 9 4 3 3 4 2 2 1 1 2 2 4 5 2 4 5 3 1 4 5 9 11 12 8 7 8 9 5 3 3 4 6 4 6 8 13
17 15 15 16 14 10 9 9 8 6 2 2 1 2 1 1 1 1 1 1 2 3 2 1 2 2 1 3 6 4 5 4 5 6 2 1 4 3 6 9 5 6 4 7 8 7 9 11 12 11 10 10 9 9 7 7 7 4 3 2 2 2 2 2 2 3 5 5 1 9 12 5 4 5 3 6 5 8 6 4 9 6 2 2 8 10 3
16 15 16 15 14 12 11 10 10 5 2 3 2 2 1 0 2 2 1 1 1 2 1 2 1 3 5 5 7 4 4 4 2 1 3 4 7 3 5 7 4 6 5 6 7 9 12 12 13 10 11 12 13 11 11 11 10 8 6 3 4 5 6 6 2 3 4 5 6 8 0 6 6 5 2 1 3 6 10 5 7 9 5 3 3 6 10
16 16 16 15 14 14 12 11 10 7 2 2 2 3 2 1 1 2 2 0 1 2 2 3 4 5 6 6 4 5 6 5 3 2 7 4 9 10 7 6 1 4 3 6 10 10 11 10 10 10 12 13 13 14 14 13 12 9 9 8 5 5 6 7 3 2 5 5 6 1 6 6 7 6 7 9 3 5 13 9 11 11 13 14 11 10 10
16 16 15 14 14 13 12 11 9 7 4 3 2 3 0 2 2 1 2 2 3 2 2 3 3 6 7 7 7 7 7 5 5 5 5 6 5 4 2 2 3 5 7 11 12 8 5 8 8 10 10 7 8 12 13 14 13 12 8 10 8 6 6 4 3 3 2 4 1 3 4 1 2 5 8 8 5 6 15 3 11 13 15 13 11 14 12
16 16 16 15 15 14 13 12 10 9 7 2 3 3 2 2 3 1 2 2 3 3 4 5 5 5 4 4 5 7 5 6 5 3 3 2 4 8 7 3 5 7 9 8 4 2 4 2 5 4 3 0 1 3 10 13 13 13 13 11 9 8 6 6 4 2 3 4 2 7 6 2 2 2 6 9 5 9 7 6 4 11 13 15 13 15 12
16 16 16 16 15 14 13 12 9 7 6 3 3 3 3 4 4 2 1 1 2 2 2 4 1 4 5 5 4 5 4 4 6 4 3 3 3 4 4 9 9 8 7 3 3 2 1 3 4 5 4 0 1 2 1 3 6 13 12 11 11 10 8 5 3 2 2 1 5 3 1 6 3 2 4 3 3 7 9 3 5 12 18 16 16 14 14
16 16 16 16 15 13 11 10 8 5 6 1 3 3 3 3 3 1 2 2 2 2 3 7 4 4 3 4 3 3 4 4 3 5 7 2 4 7 7 4 7 5 3 2 1 1 3 2 6 3 2 2 1 1 4 6 4 8 10 11 12 10 11 7 3 2 4 2 1 3 3 2 2 9 11 9 6 9 2 4 1 8 14 17 16 16 17
16 16 16 15 14 13 12 11 9 5 5 1 2 2 2 3 3 3 2 0 1 5 1 1 1 2 3 4 2 2 0 2 2 4 5 6 4 5 10 8 5 1 2 2 1 2 2 3 4 5 4 3 4 3 4 3 7 8 10 11 14 13 8 7 6 6 4 3 2 4 4 3 5 12 12 12 9 3 5 3 2 11 16 16 17 16 17
16 16 16 15 14 13 12 11 10 6 4 1 3 2 1 2 3 3 1 2 2 3 3 1 2 2 3 2 3 2 0 1 1 2 2 4 4 3 5 5 6 3 2 5 2 2 2 3 6 4 5 2 3 3 3 2 6 9 9 9 7 8 6 7 8 7 7 7 5 3 4 1 8 12 13 12 6 3 2 1 5 11 15 15 14 14 14
16 15 14 14 13 13 12 10 9 6 4 1 2 1 2 3 3 3 1 1 1 3 3 2 2 2 1 1 2 2 2 2 1 2 4 6 2 3 6 3 1 4 4 3 2 2 4 3 3 3 5 3 1 4 5 2 4 5 10 9 6 5 3 4 4 6 6 6 5 6 3 2 9 12 8 11 3 5 3 3 4 8 12 13 13 13 15
16 14 14 14 13 12 12 10 8 6 3 4 3 2 1 2 3 5 3 1 1 4 3 2 2 5 1 2 2 2 3 2 0 2 1 3 4 9 7 4 2 1 5 2 4 2 3 5 4 2 2 4 3 5 2 3 4 4 5 1 2 3 5 3 6 4 4 4 3 2 2 3 13 13 5 17 6 4 6 8 7 9 13 13 14 12 15
14 14 13 13 13 12 10 8 7 5 3 2 4 1 2 0 3 3 2 0 1 4 5 1 1 5 2 5 7 6 4 7 3 1 5 4 3 3 3 2 4 3 3 2 5 5 3 6 6 3 3 3 7 5 10 8 2 7 3 3 5 7 1 1 0 2 2 2 2 1 3 4 10 10 7 6 3 4 6 6 8 10 10 12 11 11 13
14 14 14 13 12 11 9 8 5 5 3 2 4 2 1 0 1 2 3 2 3 3 4 3 2 4 8 8 8 8 9 11 9 6 3 5 1 2 4 3 4 1 1 0 2 3 1 3 3 4 5 4 2 5 8 4 6 6 7 4 4 8 6 4 2 3 3 2 4 6 5 5 6 7 6 8 6 6 7 7 5 8 11 12 10 12 13
13 14 12 12 11 11 10 7 5 3 3 3 4 0 2 0 1 1 4 2 2 3 3 4 3 5 4 7 12 12 11 10 7 6 5 3 5 1 3 3 4 2 1 1 1 4 5 3 3 3 5 3 5 7 3 3 1 6 6 7 4 5 8 5 2 4 6 4 3 4 6 7 3 6 5 6 6 7 8 9 10 9 10 10 10 13 12
13 13 12 11 11 10 9 7 4 2 2 2 4 2 1 1 1 1 1 1 2 4 4 0 2 4 2 6 4 3 5 6 10 11 6 6 3 4 2 3 2 1 1 3 4 3 3 2 3 1 3 3 5 4 6 4 6 7 4 5 5 5 9 5 4 8 4 5 5 10 11 11 3 3 5 5 4 6 7 10 10 12 12 13 12 12 12
12 12 11 10 10 10 9 7 3 2 0 2 5 2 1 1 1 1 2 1 1 2 1 6 3 7 4 6 8 4 5 7 6 8 8 10 10 6 5 2 2 2 8 10 1 1 2 3 3 1 4 3 4 5 3 4 2 7 6 6 6 4 10 2 7 9 2 5 7 8 12 8 3 3 4 4 5 6 6 6 8 13 14 12 11 13 12
12 11 10 10 9 9 8 5 3 1 2 1 4 3 2 0 0 2 2 1 1 0 2 3 6 4 3 6 4 7 10 3 8 10 11 12 12 11 6 5 7 3 3 3 0 3 2 2 2 2 4 3 4 4 5 5 4 3 7 7 6 8 8 5 10 6 7 5 5 14 12 3 6 3 3 3 6 8 9 8 10 13 16 16 14 11 12
12 10 9 8 9 8 7 4 1 1 2 1 2 1 2 2 1 4 2 2 2 1 2 3 5 7 4 7 5 5 6 7 4 7 7 8 7 4 3 4 5 6 5 6 1 1 1 1 1 4 4 3 5 4 3 3 3 4 5 9 9 5 6 9 7 7 3 6 9 13 9 7 8 10 10 11 11 9 11 11 10 11 14 14 16 14 11
11 9 8 8 8 7 5 3 1 1 2 3 3 2 2 1 3 4 1 1 2 1 1 3 5 8 7 3 4 5 7 7 6 4 5 4 4 2 3 2 3 3 3 5 6 4 3 5 6 4 4 3 4 4 5 4 2 1 7 10 9 8 10 8 7 7 8 11 12 10 9 12 13 12 11 9 7 8 12 14 12 11 11 12 13 13 14
10 9 8 8 8 6 4 1 2 2 4 4 2 1 3 5 4 4 4 1 1 1 2 4 4 3 3 5 6 3 5 7 6 7 7 7 5 4 2 2 1 3 1 1 1 1 3 3 3 4 4 5 5 5 5 4 4 7 9 11 9 10 9 10 11 13 10 10 11 11 11 12 13 13 13 12 9 8 13 13 12 10 11 11 12 10 10
10 9 8 7 6 6 4 2 3 4 4 2 1 1 1 1 1 4 4 4 4 1 1 3 3 1 2 1 1 2 3 5 6 7 8 6 6 5 3 1 2 2 2 3 3 4 4 2 3 3 4 5 4 4 3 4 4 5 7 12 10 9 9 7 7 10 11 13 12 12 13 14 14 14 13 13 11 10 10 13 12 10 10 10 11 10 9
9 8 8 7 7 5 4 4 4 3 5 1 1 1 2 1 2 1 5 4 3 1 1 1 4 4 5 2 1 2 0 1 2 3 3 3 2 2 0 1 2 2 2 2 2 1 2 2 3 4 2 6 5 3 4 5 7 6 13 14 11 11 10 10 9 8 9 10 10 12 12 11 12 11 12 12 12 11 11 11 13 11 12 10 10 9 7
10 8 8 7 6 5 4 3 3 5 2 4 2 1 2 1 1 1 5 4 4 0 0 3 2 1 1 2 1 0 1 0 1 1 1 0 2 1 3 3 1 1 1 1 1 1 1 2 2 4 4 6 5 3 3 5 9 11 14 13 12 11 11 11 10 11 11 11 11 9 6 9 9 9 8 4 8 9 10 12 11 8 10 10 8 8 7
9 7 6 6 6 5 4 3 2 6 3 5 4 3 3 3 3 4 7 5 1 1 0 1 1 1 0 1 3 2 1 0 2 2 1 1 0 0 1 0 1 1 2 0 2 0 1 1 2 3 2 2 2 3 3 8 10 11 12 12 12 12 13 12 11 11 12 12 12 10 12 13 14 13 10 8 8 8 9 10 9 6 7 8 9 9 7
9 7 5 5 5 5 4 3 2 6 3 1 2 3 3 5 4 6 3 2 1 0 2 0 1 2 3 4 1 1 1 0 2 1 0 1 1 1 0 0 1 1 2 2 1 0 2 0 2 4 3 2 1 2 4 8 13 12 12 11 12 12 11 11 10 14 14 12 12 11 12 13 11 6 3 4 7 7 7 6 6 6 5 5 7 7 5
9 7 6 4 4 4 3 2 1 1 1 1 2 4 2 6 5 5 4 2 1 0 0 0 2 1 2 2 1 2 0 1 1 0 2 1 2 0 0 1 3 2 1 1 1 1 0 1 1 2 5 5 2 3 5 11 14 13 12 12 13 12 12 12 12 15 14 14 14 13 13 14 15 14 10 6 5 6 8 8 8 8 9 8 6 6 5
9 4 3 3 2 3 2 2 1 2 1 2 3 2 6 6 5 2 2 1 1 1 0 1 1 2 2 1 2 1 0 1 1 1 0 1 2 2 2 1 1 1 1 1 1 2 1 2 1 3 5 2 5 4 8 13 13 14 14 13 13 13 12 14 14 16 15 13 15 15 16 15 14 13 12 12 8 5 7 8 10 9 11 10 8 6 5
4 3 6 6 3 2 1 2 1 2 2 2 3 5 7 4 1 3 2 1 0 1 2 1 0 4 5 4 1 4 1 1 0 1 1 0 1 1 3 3 1 1 2 3 3 3 3 1 3 1 4 5 5 7 7 9 11 11 12 12 10 11 11 11 14 14 14 15 15 15 15 16 15 13 13 12 12 9 5 8 9 10 11 11 8 7 8
3 3 2 1 3 3 2 1 1 2 4 6 5 2 2 3 1 1 1 1 1 2 1 1 3 2 0 1 1 1 0 3 1 0 2 0 2 1 1 2 1 1 1 0 1 1 1 3 3 3 3 3 2 3 6 8 8 7 8 10 10 10 11 11 13 13 14 13 13 16 16 16 16 15 13 14 13 13 9 5 8 9 9 9 8 7 8
1 1 3 3 2 1 2 1 1 2 2 2 2 1 1 1 1 1 1 1 1 1 1 2 3 2 3 1 4 2 1 0 2 1 0 1 1 2 1 2 0 1 0 1 0 0 1 3 2 2 4 7 8 8 7 7 6 5 6 7 8 9 11 11 12 14 15 14 14 16 15 14 16 15 13 13 12 11 10 10 6 7 8 9 9 7 8
1 0 1 1 1 3 2 3 3 1 1 1 2 3 1 1 2 2 0 1 2 1 1 2 3 4 5 4 1 1 0 1 1 2 1 3 0 1 0 1 1 0 0 1 1 2 2 2 1 1 4 7 8 9 8 7 6 6 5 7 9 10 10 10 10 10 10 11 11 13 13 14 14 12 11 13 12 12 12 11 10 6 5 8 9 8 8
1 2 1 0 2 1 1 1 2 1 1 1 0 0 1 1 0 0 0 1 1 3 2 1 1 1 1 1 1 2 1 1 1 1 2 1 1 1 1 0 1 1 0 0 1 2 2 2 1 1 3 5 6 8 8 8 7 7 6 6 7 7 9 9 9 10 11 11 11 11 12 15 15 14 13 14 12 12 11 12 12 12 10 5 8 9 8
3 1 0 2 2 1 2 3 2 1 0 0 1 1 0 2 0 1 1 0 2 1 2 1 2 1 2 5 3 2 1 1 2 1 1 1 1 1 1 1 2 2 0 1 2 2 2 2 1 1 3 4 5 4 5 6 6 4 6 6 5 5 7 8 10 10 10 10 9 11 12 13 14 13 13 13 12 12 11 13 15 15 13 10 6 6 5
2 2 2 1 1 1 2 1 1 1 1 2 2 2 2 2 0 0 3 1 1 0 4 0 2 0 1 1 1 0 0 0 0 0 1 1 1 2 1 0 1 1 0 1 1 1 2 1 0 1 3 4 3 3 5 5 5 3 2 2 3 3 4 6 8 9 11 10 10 10 10 12 13 13 13 14 15 17 16 15 15 12 13 11 10 8 2
2 1 1 1 1 1 0 1 0 1 1 1 1 1 1 2 5 2 2 4 1 2 2 1 3 1 2 0 1 0 0 1 3 1 1 1 1 1 1 0 0 2 1 2 2 2 1 1 1 2 3 3 3 4 5 6 5 3 3 2 2 3 4 4 6 8 10 10 11 11 11 11 12 12 13 14 15 16 16 17 16 15 15 14 13 12 10
2 1 2 0 0 1 1 2 1 2 1 2 1 1 1 2 5 2 3 4 3 5 2 1 1 1 1 0 1 0 0 0 1 1 2 0 1 0 1 1 1 2 2 0 1 1 1 0 1 2 4 5 5 4 5 5 4 3 2 3 5 4 4 6 6 5 6 7 9 10 11 12 12 12 13 14 13 13 15 16 15 15 15 15 15 15 13
0 1 0 2 3 1 1 1 0 1 1 2 1 4 3 6 3 5 6 1 2 5 6 4 0 1 1 1 1 1 0 1 0 1 1 0 1 0 0 0 3 3 2 2 2 1 0 4 4 5 4 4 5 5 4 5 5 3 3 5 5 5 5 5 5 5 6 7 8 9 10 10 11 12 13 12 12 13 13 13 15 16 16 18 14 13 14
1 1 2 1 1 1 1 0 2 3 2 2 5 5 5 6 6 6 3 1 4 6 4 1 3 3 1 0 0 1 1 1 0 1 1 1 0 1 1 3 1 1 1 2 2 2 3 4 4 4 4 4 5 4 4 5 5 5 4 2 4 5 5 5 6 6 6 7 8 9 9 10 10 10 11 13 13 13 13 13 13 14 16 16 15 15 15
1 1 1 0 3 1 1 4 2 2 3 5 4 3 4 1 3 6 4 4 5 0 1 0 1 0 0 1 1 1 0 0 0 1 0 0 1 2 2 2 1 0 1 1 2 2 3 4 4 5 5 4 3 3 5 5 5 5 4 3 3 4 5 5 5 6 6 7 7 8 8 8 9 9 10 11 12 12 12 12 12 13 13 14 16 16 16
2 2 1 1 1 1 2 1 1 2 5 4 3 3 1 1 5 7 6 1 1 3 1 1 1 1 0 0 1 1 1 1 2 1 2 3 2 0 0 1 1 2 1 1 3 2 3 4 4 4 4 4 4 4 4 3 4 4 3 2 2 2 2 3 4 4 3 3 4 5 6 7 7 8 8 9 9 10 10 10 11 12 13 13 13 14 15
0 1 1 0 2 2 1 1 1 3 5 5 3 3 0 1 5 7 1 1 2 1 1 1 1 2 1 1 1 2 0 1 1 1 3 1 1 1 2 1 2 2 2 1 2 3 4 5 3 4 4 4 4 4 4 5 5 4 4 3 1 2 3 3 3 3 2 2 2 3 3 4 6 6 8 8 7 6 8 10 10 11 12 13 13 13 14
1 0 2 3 3 4 2 3 3 4 5 6 4 5 3 3 3 3 1 1 2 3 4 1 0 1 1 2 1 1 0 1 3 1 2 2 1 1 2 2 4 4 5 4 4 4 4 4 4 4 3 4 4 4 3 4 3 3 3 3 3 2 3 4 3 2 2 1 1 2 3 3 3 4 5 5 6 7 8 10 10 10 11 11 12 12 12
0 0 1 1 2 2 3 2 1 6 7 6 4 5 4 2 4 4 0 2 3 3 2 0 1 1 2 1 0 1 0 1 0 1 1 2 2 1 3 4 5 5 4 4 4 3 4 4 4 3 3 3 3 4 3 3 3 3 4 3 3 3 3 3 3 3 2 3 2 1 1 2 2 3 4 6 6 7 9 9 9 9 9 9 9 10 11
Wind_Direction
335 336 337 336 334 334 334 337 332 341 348 352 353 342 32 31 247 277 305 326 351 70 60 28 35 18 339 311 254 281 27 357 356 17 359 12 5 7 58 318 71 325 114 270 104 322 248 184 213 216 329 258 210 312 317 359 322 308 302 292 318 292 86 290 276 293 260 265 259 289 315 182 233 208 358 347 326 314 266 233 182 187 227 200 241 253 248
335 335 336 334 333 334 334 335 330 340 1 355 331 5 32 330 295 317 314 337 353 76 46 10 355 2 326 358 328 337 51 12 12 35 10 13 355 354 344 305 23 90 24 170 167 136 21 204 170 322 211 270 176 39 339 345 322 355 348 347 348 18 273 116 340 355 339 307 45 90 19 44 58 322 314 302 312 348 328 317 48 213 196 192 173 244 245
334 332 334 332 333 334 332 334 325 336 351 6 338 359 317 291 227 232 307 352 29 67 7 9 311 10 349 320 13 359 27 17 27 16 32 33 8 350 354 5 327 24 303 246 212 225 175 289 251 209 162 228 188 200 256 334 307 295 302 298 312 290 288 68 119 159 192 214 213 164 331 333 312 286 303 319 359 348 357 268 187 222 226 178 209 242 239
334 332 332 330 333 334 331 329 325 331 345 1 355 333 335 1 9 319 347 14 31 74 72 65 4 349 3 359 354 342 4 353 11 18 51 41 4 248 226 279 183 20 349 355 221 301 221 151 254 111 251 283 277 217 200 305 304 301 323 356 352 244 227 196 189 166 220 212 86 196 203 299 312 309 308 300 318 304 267 264 290 244 188 206 232 223 250
334 331 332 332 334 333 328 327 324 329 343 3 349 351 117 273 78 322 346 347 59 60 7 30 19 349 323 351 337 357 10 333 346 15 18 350 348 313 345 54 25 359 344 294 298 246 255 279 314 259 256 241 244 206 191 248 270 297 339 3 334 278 292 251 233 234 248 283 294 301 288 277 276 290 292 297 294 295 279 230 237 42 109 248 166 244 256
331 330 333 335 333 330 329 324 322 325 345 350 335 348 317 54 264 76 193 80 332 2 356 16 339 313 305 250 299 359 1 8 2 344 86 287 311 307 264 356 23 338 309 295 272 308 252 241 243 305 251 354 310 325 255 218 245 348 342 358 30 279 260 250 227 252 251 263 266 277 277 258 266 270 275 283 285 289 269 255 248 278 240 256 209 238 243
329 333 335 334 334 331 329 324 321 327 337 341 12 24 308 137 152 89 229 26 98 161 275 328 323 321 308 301 14 351 355 343 27 336 313 320 298 52 351 322 334 326 328 316 263 289 333 292 281 249 293 236 271 291 335 288 97 148 345 343 281 328 255 272 267 276 271 271 262 261 260 266 262 251 253 252 267 274 265 256 249 239 254 296 277 242 236
331 335 335 330 333 328 324 320 320 328 337 330 335 95 33 14 2 14 216 198 278 279 334 275 354 328 326 18 287 331 318 334 346 326 297 316 297 36 344 318 325 324 316 277 234 242 229 274 285 254 255 282 199 254 210 200 322 113 282 323 298 222 272 268 196 272 268 264 264 256 237 241 269 263 259 270 275 279 266 252 252 239 258 253 258 264 267
333 337 331 330 331 325 319 315 318 326 9 333 360 332 141 319 40 357 338 330 259 181 181 350 340 330 318 57 332 334 356 337 347 301 258 231 256 342 316 310 316 312 309 286 263 268 265 266 257 254 238 256 197 187 281 155 179 181 184 212 277 314 279 357 342 347 295 273 212 250 281 273 251 265 277 282 311 314 318 239 260 183 218 256 271 271 262
335 335 330 328 329 322 317 315 314 332 78 296 254 276 108 97 63 26 88 352 349 351 279 306 317 317 264 319 337 332 321 314 325 318 296 249 246 274 310 311 308 291 302 284 274 294 291 278 270 257 243 237 241 220 228 174 174 185 185 201 203 192 288 314 322 258 260 262 314 317 308 282 229 229 224 270 315 333 322 354 23 13 234 220 225 242 349
335 328 328 329 326 323 326 316 314 325 342 305 290 266 72 44 317 51 41 359 263 189 7 264 176 292 312 326 321 321 311 304 299 313 319 323 293 290 309 298 302 274 269 262 281 285 278 272 268 258 247 236 237 235 232 222 208 179 161 159 210 219 239 265 281 205 258 297 321 299 231 201 210 126 140 76 2 3 343 10 10 6 7 271 224 263 295
333 329 328 325 325 322 320 314 308 305 254 250 242 273 224 150 200 169 138 145 306 118 177 252 277 289 292 299 298 298 298 292 290 222 262 272 287 305 310 290 215 290 238 280 301 300 290 271 258 258 250 245 238 235 228 223 216 201 172 174 170 201 230 233 227 222 276 302 338 177 194 217 134 138 53 30 10 17 343 303 32 12 5 360 346 335 329
330 329 327 325 322 320 320 316 310 305 291 276 251 263 97 144 212 190 165 162 256 186 273 274 265 267 279 291 296 305 315 305 294 289 270 268 293 299 238 265 278 262 308 304 309 316 309 286 282 258 259 245 238 232 229 222 217 199 185 174 174 207 231 238 228 220 312 1 308 194 204 306 225 137 43 33 79 27 351 327 44 19 13 357 345 325 323
328 329 325 323 321 323 320 313 310 305 299 256 238 234 227 201 226 121 163 138 254 206 241 285 270 273 293 295 304 316 318 308 300 271 268 237 263 280 277 231 249 284 294 300 300 355 316 7 318 354 317 192 235 226 220 210 203 196 190 177 174 202 224 229 245 175 172 222 196 239 322 321 31 36 13 23 359 336 340 314 358 37 11 1 341 324 331
328 326 324 322 323 322 322 313 313 305 299 266 219 243 233 217 209 186 189 188 251 267 177 270 272 309 319 310 330 315 312 297 339 313 262 277 256 225 256 287 294 297 305 327 335 19 5 303 326 314 294 111 270 264 90 197 176 192 183 170 175 193 210 208 221 248 188 65 300 323 169 179 188 143 298 4 314 308 282 239 271 18 2 354 348 334 340
329 326 325 329 329 327 331 332 335 326 310 287 191 221 232 219 206 171 157 174 159 296 245 223 270 295 301 303 301 292 285 316 292 289 312 308 259 302 291 280 290 300 304 84 92 21 333 341 296 291 293 304 340 303 242 160 151 176 169 172 184 198 215 257 226 305 39 22 205 245 187 196 101 316 313 319 329 315 297 226 229 20 350 347 346 341 340
330 326 329 332 333 337 339 335 334 334 327 237 199 204 245 180 183 178 130 208 150 233 323 109 154 239 295 289 276 317 349 247 283 342 329 315 307 306 301 316 311 7 331 313 311 11 315 274 244 255 258 256 247 275 318 226 150 140 162 180 193 203 202 210 237 245 230 227 268 273 223 241 330 324 316 315 316 1 134 213 86 351 343 339 340 337 341
328 328 332 336 334 337 334 335 336 347 338 227 175 217 241 173 183 143 162 145 181 279 261 224 157 228 232 233 270 256 220 358 14 308 255 280 298 313 316 339 334 326 360 356 354 353 271 267 309 300 288 207 273 294 250 296 143 145 160 167 176 195 196 204 215 215 226 223 242 285 313 349 342 322 308 316 323 167 147 138 333 335 330 333 332 329 334
330 334 336 336 335 335 338 337 337 346 353 136 160 221 255 199 165 171 117 183 188 255 270 236 193 231 286 14 210 203 193 194 230 302 310 323 276 244 270 269 326 314 5 352 309 310 310 265 213 266 303 298 263 291 298 358 77 97 126 148 171 176 185 183 196 224 218 212 223 227 218 83 330 321 323 339 82 99 100 26 351 332 328 329 336 333 335
333 339 337 336 337 340 340 344 344 339 351 168 159 190 220 152 175 176 171 183 183 268 290 240 181 235 229 219 273 309 324 339 164 207 173 254 278 338 359 22 324 324 311 332 335 339 304 312 330 293 277 286 315 305 326 39 35 76 155 175 100 126 178 180 187 214 185 200 215 243 239 352 353 313 348 25 51 42 344 325 329 344 330 339 340 345 336
334 339 338 338 340 341 346 357 358 349 344 150 153 136 14 99 161 189 197 184 324 303 301 284 238 250 227 239 230 227 221 240 164 200 221 224 267 13 8 338 305 353 301 5 339 330 332 314 343 327 297 309 319 344 354 332 13 18 317 162 77 6 184 59 328 328 213 141 169 165 26 11 345 19 82 85 61 321 338 349 340 341 340 341 337 342 338
338 339 339 340 340 345 352 1 7 359 352 158 129 80 66 239 149 167 172 178 233 231 249 235 199 242 235 236 233 220 222 231 222 192 218 282 273 192 250 276 289 257 242 340 329 308 332 316 283 313 326 314 290 341 316 337 20 327 0 358 100 13 349 343 305 66 28 356 51 37 52 41 43 51 66 64 26 2 1 356 334 335 338 334 332 339 333
339 340 340 342 344 347 351 353 10 6 17 145 117 100 186 314 326 142 136 190 239 262 271 286 303 277 276 246 235 231 228 229 231 214 189 188 293 232 227 259 276 215 257 103 181 242 273 293 297 299 300 337 337 319 321 349 5 351 23 8 66 65 355 315 317 0 304 227 49 49 5 0 56 79 77 64 27 354 360 358 345 340 327 328 329 328 331
340 340 342 344 345 345 348 350 1 36 6 143 150 127 263 229 245 90 112 124 42 306 313 2 17 336 342 318 307 190 205 228 220 223 188 164 202 290 287 231 230 304 276 258 182 250 278 238 263 118 292 312 322 318 336 354 27 333 338 10 357 24 9 10 24 331 337 133 58 23 343 320 248 127 101 91 72 11 358 350 340 326 327 326 326 323 326
340 342 345 347 348 348 347 349 13 10 44 192 163 189 134 318 270 211 100 128 38 37 331 308 265 237 264 264 271 249 198 206 184 181 179 190 200 208 235 198 174 345 305 308 83 231 256 303 315 324 308 7 342 336 327 333 25 354 21 16 351 351 356 330 4 332 345 350 25 10 336 323 89 105 69 11 11 8 357 343 332 319 316 314 315 321 326
341 342 346 350 349 350 352 355 343 20 97 192 159 154 164 208 5 88 70 69 145 121 337 308 279 304 304 326 355 327 303 261 169 171 188 195 201 215 256 332 318 307 290 304 73 234 252 250 281 260 324 322 10 337 336 338 303 332 36 23 349 305 327 9 333 313 306 276 35 0 339 96 102 101 97 340 336 336 329 334 328 320 316 319 323 332 335
339 341 344 346 346 348 354 1 41 296 174 150 129 111 156 268 190 161 151 174 83 347 17 283 283 296 348 334 281 311 331 359 150 163 178 196 205 209 244 287 291 315 334 332 290 230 76 332 274 341 334 334 334 293 303 316 356 358 18 2 345 338 14 340 329 344 25 16 344 344 339 317 306 310 315 319 320 322 315 313 312 313 310 315 319 323 336
336 337 338 337 341 345 348 339 278 179 195 161 144 202 194 213 227 199 175 110 105 164 225 266 298 293 301 249 295 331 334 17 33 117 153 169 180 174 199 247 310 312 329 346 328 2 339 360 3 328 309 357 333 317 328 278 264 50 17 5 351 4 341 340 342 335 319 316 309 306 288 277 272 286 295 288 292 297 297 297 297 296 294 299 305 315 326
331 331 330 329 329 328 330 308 206 173 169 159 156 236 263 230 228 210 188 181 62 326 262 264 283 327 6 314 324 338 19 28 43 58 79 93 93 74 63 9 290 282 304 344 291 321 356 343 351 349 346 325 316 311 332 2 19 25 2 345 347 345 319 328 321 314 287 287 302 304 294 285 285 280 275 274 264 264 272 273 276 273 277 284 290 295 302
328 322 322 319 315 314 299 274 175 181 168 137 203 322 355 325 217 198 200 172 151 134 12 350 351 259 309 298 316 347 33 35 43 53 58 63 66 61 39 15 14 24 47 26 336 21 354 357 336 290 293 323 343 316 3 343 13 3 344 345 345 333 331 318 298 316 315 315 302 296 292 284 276 271 267 264 257 246 253 261 257 258 253 259 272 283 291
323 318 314 313 306 301 286 270 221 183 161 106 71 58 35 29 290 247 173 167 147 112 252 173 252 300 326 261 152 346 84 81 66 66 69 82 95 108 150 151 66 5 58 355 31 306 299 334 308 306 313 348 356 352 351 356 4 354 348 340 339 340 338 330 324 307 304 307 305 303 284 268 266 272 268 259 258 245 245 255 261 254 255 258 259 264 276
319 312 308 302 293 281 281 280 274 175 176 134 130 173 193 202 215 186 161 140 132 156 320 342 325 355 321 304 293 295 109 17 80 37 359 270 18 2 53 67 109 316 110 142 246 328 348 281 278 301 328 335 340 325 322 360 13 357 333 339 340 337 336 333 332 332 327 326 328 318 303 309 295 274 274 228 237 244 243 249 254 251 254 260 263 261 266
313 305 295 293 287 271 244 267 188 156 201 233 247 295 252 259 228 147 140 116 94 252 123 26 275 284 311 268 314 334 99 31 4 39 18 333 183 15 57 78 107 61 305 65 352 113 280 329 303 324 335 1 9 346 340 12 354 335 337 338 342 340 339 336 335 335 330 334 349 346 330 316 306 294 279 249 234 242 251 255 258 250 236 240 250 252 253
303 297 288 278 272 264 258 251 250 215 287 357 300 263 226 202 122 124 124 90 128 159 83 114 331 338 266 325 76 281 46 68 280 64 20 302 141 73 326 25 299 83 328 76 224 3 308 275 353 295 320 353 354 312 13 348 343 343 343 342 347 343 337 332 339 347 338 337 344 343 327 316 317 309 278 262 250 254 265 265 277 274 247 235 239 242 241
306 288 267 255 247 241 225 157 58 93 212 264 262 261 194 162 138 155 147 132 94 348 355 256 133 39 336 349 73 266 326 79 305 247 166 289 18 101 306 38 321 65 296 123 30 146 334 17 259 5 345 296 324 31 1 336 336 342 347 349 352 347 346 349 351 349 338 339 346 345 341 353 360 2 340 299 261 255 255 268 265 264 273 257 250 248 246
317 285 245 204 177 148 90 65 106 99 5 242 230 222 151 148 127 92 116 119 136 156 128 254 93 198 158 227 266 270 185 300 265 359 197 57 341 352 47 90 12 283 267 32 316 336 90 299 48 21 311 8 23 8 339 340 338 339 348 348 348 355 355 349 340 344 347 343 350 349 353 2 5 354 347 343 323 253 244 257 265 270 266 270 264 261 253
2 116 127 109 90 48 24 221 234 168 201 215 188 134 122 125 52 56 31 25 325 122 158 173 115 232 171 208 253 277 70 317 6 10 327 107 215 6 67 23 132 265 34 358 19 337 290 341 99 25 13 23 342 328 334 331 341 336 339 344 344 348 350 345 348 343 352 358 3 4 360 359 1 360 350 343 339 335 254 246 258 263 268 268 273 264 251
65 107 86 39 52 36 344 303 218 242 167 134 126 77 357 34 130 330 358 42 255 134 287 82 231 246 286 91 260 247 163 261 85 146 292 220 70 303 167 127 202 153 259 67 251 216 346 12 34 19 357 351 268 294 334 329 314 322 333 341 346 346 346 344 345 350 356 356 9 6 1 1 2 1 353 345 338 332 325 283 244 256 261 268 267 265 271
98 77 50 37 99 200 198 246 275 94 76 7 48 78 309 9 70 2 256 277 39 288 260 133 248 189 152 175 266 280 182 244 329 53 82 262 111 319 57 74 261 95 331 10 240 186 29 352 360 26 360 339 347 343 335 323 320 313 327 337 343 343 345 346 352 357 1 5 356 354 354 355 354 349 352 351 341 335 328 327 305 242 250 259 264 267 263
61 60 145 55 192 237 259 293 343 63 32 46 326 101 303 311 85 290 255 18 331 269 114 289 215 175 182 190 192 295 305 71 332 296 194 308 283 146 256 93 266 125 167 109 227 177 125 98 4 41 345 341 332 325 336 327 322 329 338 343 344 346 344 346 350 350 352 353 354 354 355 359 2 358 350 351 351 350 346 337 334 327 249 244 249 246 254
39 91 60 170 248 222 266 303 356 50 43 359 7 354 83 348 196 192 57 24 218 248 209 186 2 351 247 129 138 208 300 74 99 118 132 183 245 68 63 175 240 88 336 228 253 101 66 79 76 48 329 330 323 318 324 326 327 328 335 340 345 346 340 343 347 352 353 356 358 356 353 357 1 4 2 358 357 359 359 355 349 343 344 315 247 242 239
188 171 181 127 118 81 21 21 59 31 49 143 108 286 205 239 336 2 133 335 282 299 305 167 289 215 246 188 210 160 287 194 148 166 103 331 310 123 201 295 353 104 73 232 142 80 81 77 72 297 291 311 292 308 314 317 314 315 316 330 336 347 345 344 348 351 356 0 360 359 357 355 359 1 2 6 8 6 5 4 2 358 350 341 329 256 245
75 54 67 59 31 3 100 29 314 104 95 349 34 348 1 25 332 66 291 276 329 119 259 343 246 210 239 96 12 345 184 71 84 24 66 245 304 51 91 358 56 27 210 64 72 58 73 120 143 244 260 293 298 313 310 293 283 271 259 296 312 325 348 352 352 350 350 356 3 6 0 359 1 2 4 11 14 16 14 12 8 1 358 0 13 11 360
107 104 69 353 56 306 84 347 258 356 339 96 85 310 324 351 311 358 340 280 257 312 244 35 292 63 294 296 166 286 39 40 70 79 337 356 79 337 50 61 226 248 62 37 57 98 157 167 190 258 297 301 326 336 315 305 301 308 338 325 339 6 8 7 2 5 360 356 1 3 7 7 4 4 8 13 18 20 20 19 13 12 11 12 18 19 16
110 6 30 32 13 268 56 308 346 100 7 288 149 203 171 267 267 191 223 246 145 269 295 205 210 149 223 286 62 73 119 140 356 92 259 307 15 218 101 275 259 30 76 296 317 157 109 301 300 329 329 333 323 321 313 300 304 314 296 338 5 360 15 21 12 7 10 8 2 1 8 6 9 9 11 12 14 18 27 26 14 18 21 23 20 20 17
125 188 94 54 331 309 98 250 11 5 291 157 210 205 189 234 207 248 250 177 246 292 325 310 123 159 260 241 136 221 59 103 44 247 188 98 103 336 260 57 71 60 11 30 360 1 208 248 278 291 297 309 312 314 309 312 319 337 25 8 334 356 2 14 10 10 11 11 11 12 10 10 12 12 12 11 13 16 21 24 28 29 28 31 22 18 18
78 31 83 120 119 279 87 261 240 206 187 217 226 194 195 226 212 225 251 180 234 253 277 259 182 177 153 206 114 3 55 103 97 273 77 41 22 270 27 81 22 355 35 344 345 330 274 269 270 277 294 304 309 315 330 334 328 350 350 350 357 355 357 7 2 3 2 13 19 17 13 14 14 13 14 16 17 16 17 20 24 34 41 38 29 28 28
238 245 107 261 245 194 165 250 211 294 260 211 239 203 229 241 332 304 264 212 230 236 278 15 328 340 346 311 84 162 258 34 63 311 16 241 12 39 16 39 36 270 174 224 266 223 236 263 277 292 294 298 298 336 344 336 332 343 346 359 4 357 356 8 10 354 354 10 18 17 13 11 10 17 21 20 19 17 15 17 22 25 34 41 39 34 31
133 128 183 206 201 173 222 267 34 259 269 278 291 296 278 266 253 261 274 237 259 283 219 155 210 104 288 291 76 39 356 333 74 280 6 27 79 237 172 280 356 326 281 194 222 225 226 259 280 295 303 326 344 348 332 316 323 337 336 331 351 326 6 12 5 357 347 354 9 18 17 9 5 14 20 22 24 19 15 19 22 30 33 36 38 39 35
115 310 39 115 330 319 263 61 60 276 300 314 335 294 264 259 272 270 234 314 287 11 12 33 39 95 260 63 359 5 313 325 138 27 58 23 216 270 58 341 244 190 258 263 240 238 248 263 290 309 313 335 336 343 335 330 339 340 331 312 1 35 29 26 3 354 350 345 6 23 18 22 10 9 12 16 13 15 22 28 28 31 34 36 37 39 39
27 129 237 176 169 230 166 289 269 262 298 281 254 249 188 228 216 258 222 158 22 41 41 65 304 65 9 23 49 34 256 173 54 43 150 219 201 102 154 201 245 221 234 239 237 253 257 263 265 275 317 328 317 321 327 328 335 322 312 332 359 27 38 36 25 358 333 335 343 29 20 13 12 15 9 8 12 21 29 33 31 31 36 40 40 40 41
55 354 272 300 216 192 189 202 170 219 236 242 229 244 154 238 244 237 237 87 67 59 329 257 75 36 56 56 223 207 306 45 61 49 16 277 151 146 217 201 233 230 228 265 288 263 254 270 274 279 283 289 314 317 316 339 341 340 348 350 7 13 31 34 27 19 4 345 337 358 15 349 359 37 42 34 21 27 32 31 26 31 38 41 43 44 45